| time (UTC) | temp C | wind direction | speed KPH | gust KPH | rain 1hr cm | rain 24hr cm | rain mn cm | humidity % | barometer mb |
| 20260506105504 | -17 | 0.0 | 0.0 | 0.00 | 0.00 | 0.00 | 1008.6 | ||
| 20260506105007 | -17 | 0.0 | 0.0 | 0.00 | 0.00 | 0.00 | 1008.6 | ||
| 20260506104508 | -17 | 0.0 | 0.0 | 0.00 | 0.00 | 0.00 | 1008.6 | ||
| 20260506104003 | -17 | 0.0 | 0.0 | 0.00 | 0.00 | 0.00 | 1008.5 | ||
| 20260506103504 | -17 | 0.0 | 0.0 | 0.00 | 0.00 | 0.00 | 1008.5 | ||
| 20260506103009 | -17 | 0.0 | 0.0 | 0.00 | 0.00 | 0.00 | 1008.7 | ||
| 20260506102504 | -17 | 0.0 | 0.0 | 0.00 | 0.00 | 0.00 | 1008.6 | ||
| 20260506102004 | -17 | 0.0 | 0.0 | 0.00 | 0.00 | 0.00 | 1008.7 | ||
| 20260506101516 | -17 | 0.0 | 0.0 | 0.00 | 0.00 | 0.00 | 1008.6 | ||
| 20260506101004 | -17 | 0.0 | 0.0 | 0.00 | 0.00 | 0.00 | 1008.6 | ||
| 20260506100504 | -17 | 0.0 | 0.0 | 0.00 | 0.00 | 0.00 | 1008.5 | ||
| 20260506100010 | -17 | 0.0 | 0.0 | 0.00 | 0.00 | 0.00 | 1008.5 | ||
| 20260506095506 | -17 | 0.0 | 0.0 | 0.00 | 0.00 | 0.00 | 1008.4 | ||
| 20260506095004 | -17 | 0.0 | 0.0 | 0.00 | 0.00 | 0.00 | 1008.6 | ||
| 20260506094520 | -17 | 0.0 | 0.0 | 0.00 | 0.00 | 0.00 | 1008.4 | ||
| 20260506094004 | -17 | 0.0 | 0.0 | 0.00 | 0.00 | 0.00 | 1008.3 | ||
| 20260506093504 | -17 | 0.0 | 0.0 | 0.00 | 0.00 | 0.00 | 1008.2 | ||
| 20260506093014 | -17 | 0.0 | 0.0 | 0.00 | 0.00 | 0.00 | 1008.2 | ||
| 20260506092504 | -17 | 0.0 | 0.0 | 0.00 | 0.00 | 0.00 | 1008.2 | ||
| 20260506092007 | -17 | 0.0 | 0.0 | 0.00 | 0.00 | 0.00 | 1008.2 | ||
| 20260506091508 | -17 | 0.0 | 0.0 | 0.00 | 0.00 | 0.00 | 1008.2 | ||
| 20260506091005 | -17 | 0.0 | 0.0 | 0.00 | 0.00 | 0.00 | 1008.1 | ||
| 20260506090504 | -17 | 0.0 | 0.0 | 0.00 | 0.00 | 0.00 | 1008.0 | ||
| 20260506090010 | -17 | 0.0 | 0.0 | 0.00 | 0.00 | 0.00 | 1008.0 | ||
| 20260506085004 | -17 | 0.0 | 0.0 | 0.00 | 0.00 | 0.00 | 87 | 1008.1 | |
| 20260506084002 | 24 | 221 | 0.0 | 3.2 | 0.00 | 0.00 | 0.00 | 87 | 1008.2 |
| 20260506083503 | 24 | 221 | 0.0 | 1.6 | 0.00 | 0.00 | 0.00 | 87 | 1008.3 |
| 20260506083011 | 24 | 141 | 0.0 | 0.0 | 0.00 | 0.00 | 0.00 | 87 | 1008.2 |
| 20260506082503 | 24 | 141 | 0.0 | 1.6 | 0.00 | 0.00 | 0.00 | 87 | 1008.3 |
| 20260506082003 | 24 | 140 | 0.0 | 3.2 | 0.00 | 0.00 | 0.00 | 87 | 1008.3 |
| 20260506081510 | 24 | 192 | 0.0 | 3.2 | 0.00 | 0.00 | 0.00 | 87 | 1008.5 |
| 20260506081004 | 24 | 166 | 0.0 | 4.8 | 0.00 | 0.00 | 0.00 | 87 | 1008.5 |
| 20260506080504 | 24 | 166 | 1.6 | 4.8 | 0.00 | 0.00 | 0.00 | 87 | 1008.6 |
| 20260506073505 | 24 | 177 | 0.0 | 1.6 | 0.00 | 0.00 | 0.00 | 87 | 1008.9 |
| 20260506072504 | 24 | 340 | 0.0 | 3.2 | 0.00 | 0.00 | 0.00 | 87 | 1009.0 |
| 20260506072003 | 24 | 202 | 0.0 | 3.2 | 0.00 | 0.00 | 0.00 | 87 | 1009.1 |
| 20260506071514 | 24 | 254 | 0.0 | 3.2 | 0.00 | 0.00 | 0.00 | 87 | 1009.1 |
| 20260506071006 | 24 | 130 | 0.0 | 3.2 | 0.00 | 0.00 | 0.00 | 87 | 1009.2 |
| 20260506070503 | 24 | 217 | 0.0 | 1.6 | 0.00 | 0.00 | 0.00 | 87 | 1009.3 |
| 20260506062505 | 24 | 246 | 0.0 | 3.2 | 0.00 | 0.00 | 0.00 | 87 | 1009.2 |
| 20260506062005 | 24 | 246 | 0.0 | 3.2 | 0.00 | 0.00 | 0.00 | 87 | 1009.2 |
| 20260506061512 | 24 | 246 | 0.0 | 1.6 | 0.00 | 0.00 | 0.00 | 87 | 1009.2 |
| 20260506061010 | 24 | 245 | 0.0 | 1.6 | 0.00 | 0.00 | 0.00 | 86 | 1009.3 |
| 20260506060504 | 25 | 245 | 0.0 | 3.2 | 0.00 | 0.00 | 0.00 | 86 | 1009.2 |
| 20260506051005 | 25 | 150 | 0.0 | 3.2 | 0.00 | 0.00 | 0.00 | 85 | 1009.3 |
| 20260506050506 | 25 | 67 | 0.0 | 3.2 | 0.00 | 0.00 | 0.00 | 85 | 1009.4 |
| 20260506045005 | 25 | 155 | 0.0 | 3.2 | 0.00 | 0.00 | 0.00 | 85 | 1009.2 |
| 20260506044512 | 25 | 232 | 0.0 | 3.2 | 0.00 | 0.00 | 0.00 | 85 | 1009.3 |
| 20260506044003 | 25 | 279 | 0.0 | 3.2 | 0.00 | 0.00 | 0.00 | 85 | 1009.3 |
| 20260506043505 | 25 | 180 | 0.0 | 3.2 | 0.00 | 0.00 | 0.00 | 85 | 1009.2 |
| 20260506043003 | 25 | 138 | 0.0 | 3.2 | 0.00 | 0.00 | 0.00 | 85 | 1009.2 |
| 20260506042504 | 25 | 138 | 0.0 | 3.2 | 0.00 | 0.00 | 0.00 | 84 | 1009.3 |
| 20260506042007 | 25 | 226 | 0.0 | 3.2 | 0.00 | 0.00 | 0.00 | 84 | 1009.4 |
| 20260506041515 | 25 | 226 | 0.0 | 3.2 | 0.00 | 0.00 | 0.00 | 84 | 1009.3 |
| 20260506041004 | 25 | 184 | 0.0 | 3.2 | 0.00 | 0.00 | 0.00 | 84 | 1009.2 |
| 20260506040505 | 25 | 98 | 0.0 | 3.2 | 0.00 | 0.00 | 0.00 | 84 | 1009.1 |
| 20260506040012 | 25 | 178 | 0.0 | 3.2 | 0.00 | 0.00 | 0.00 | 84 | 1009.1 |
| 20260506035506 | 25 | 107 | 0.0 | 3.2 | 0.00 | 0.00 | 0.00 | 84 | 1009.1 |
| 20260506034518 | 25 | 250 | 0.0 | 3.2 | 0.00 | 0.00 | 0.00 | 84 | 1008.9 |
| 20260506034005 | 25 | 202 | 0.0 | 0.0 | 0.00 | 0.00 | 0.00 | 84 | 1008.9 |
| 20260506033007 | 25 | 192 | 0.0 | 3.2 | 0.00 | 0.00 | 0.00 | 83 | 1008.9 |
| 20260506032503 | 25 | 182 | 0.0 | 3.2 | 0.00 | 0.00 | 0.00 | 83 | 1008.8 |
| 20260506032007 | 25 | 142 | 0.0 | 3.2 | 0.00 | 0.00 | 0.00 | 83 | 1008.8 |
| 20260506031504 | 25 | 103 | 0.0 | 3.2 | 0.00 | 0.00 | 0.00 | 83 | 1008.8 |
| 20260506031005 | 25 | 313 | 0.0 | 3.2 | 0.00 | 0.00 | 0.00 | 83 | 1008.8 |
| 20260506030504 | 25 | 192 | 0.0 | 3.2 | 0.00 | 0.00 | 0.00 | 83 | 1008.8 |
| 20260506030004 | 25 | 205 | 0.0 | 3.2 | 0.00 | 0.00 | 0.00 | 83 | 1008.6 |
| 20260506025503 | 25 | 67 | 0.0 | 3.2 | 0.00 | 0.00 | 0.00 | 83 | 1008.6 |
| 20260506025003 | 25 | 331 | 0.0 | 4.8 | 0.00 | 0.00 | 0.00 | 83 | 1008.5 |
| 20260506024517 | 25 | 254 | 0.0 | 4.8 | 0.00 | 0.00 | 0.00 | 83 | 1008.3 |
| 20260506023504 | 25 | 214 | 0.0 | 3.2 | 0.00 | 0.00 | 0.00 | 82 | 1008.0 |
| 20260506023016 | 25 | 215 | 0.0 | 3.2 | 0.00 | 0.00 | 0.00 | 82 | 1008.0 |
| 20260506022502 | 25 | 160 | 0.0 | 1.6 | 0.00 | 0.00 | 0.00 | 82 | 1007.8 |
| 20260506021511 | 25 | 155 | 0.0 | 3.2 | 0.00 | 0.00 | 0.00 | 81 | 1007.9 |
| 20260506021007 | 25 | 155 | 0.0 | 1.6 | 0.00 | 0.00 | 0.00 | 81 | 1007.8 |
| 20260506020503 | 25 | 126 | 0.0 | 1.6 | 0.00 | 0.00 | 0.00 | 81 | 1007.7 |
| 20260506020010 | 26 | 161 | 0.0 | 3.2 | 0.00 | 0.00 | 0.00 | 81 | 1007.7 |
| 20260506015506 | 26 | 161 | 0.0 | 3.2 | 0.00 | 0.00 | 0.00 | 81 | 1007.6 |
| 20260506015006 | 26 | 61 | 0.0 | 3.2 | 0.00 | 0.00 | 0.00 | 81 | 1007.6 |
| 20260506014507 | 26 | 78 | 0.0 | 3.2 | 0.00 | 0.00 | 0.00 | 80 | 1007.5 |
| 20260506014003 | 26 | 196 | 0.0 | 3.2 | 0.00 | 0.00 | 0.00 | 80 | 1007.4 |
| 20260506013508 | 26 | 142 | 0.0 | 3.2 | 0.00 | 0.00 | 0.00 | 80 | 1007.4 |
| 20260506012502 | 26 | 209 | 0.0 | 3.2 | 0.00 | 0.00 | 0.00 | 80 | 1007.4 |
| 20260506012008 | 26 | 159 | 0.0 | 3.2 | 0.00 | 0.00 | 0.00 | 80 | 1007.3 |
| 20260506011507 | 26 | 134 | 0.0 | 3.2 | 0.00 | 0.00 | 0.00 | 80 | 1007.1 |
| 20260506011005 | 26 | 68 | 0.0 | 3.2 | 0.00 | 0.00 | 0.00 | 80 | 1007.0 |
| 20260506010018 | 26 | 279 | 0.0 | 3.2 | 0.00 | 0.00 | 0.00 | 79 | 1006.9 |
| 20260506005503 | 26 | 56 | 0.0 | 8.0 | 0.00 | 0.00 | 0.00 | 79 | 1006.9 |
| 20260506005002 | 26 | 105 | 1.6 | 8.0 | 0.00 | 0.00 | 0.00 | 79 | 1006.9 |
| 20260506004530 | 26 | 92 | 0.0 | 3.2 | 0.00 | 0.00 | 0.00 | 79 | 1007.0 |
| 20260506003504 | 26 | 113 | 0.0 | 3.2 | 0.00 | 0.00 | 0.00 | 79 | 1006.9 |
| 20260506003018 | 26 | 116 | 0.0 | 3.2 | 0.00 | 0.00 | 0.00 | 79 | 1006.8 |
| 20260506002511 | 27 | 138 | 0.0 | 3.2 | 0.00 | 0.00 | 0.00 | 79 | 1006.9 |
| 20260506001509 | 27 | 221 | 0.0 | 3.2 | 0.00 | 0.00 | 0.00 | 78 | 1006.7 |
| 20260506001006 | 27 | 227 | 0.0 | 3.2 | 0.00 | 0.00 | 0.00 | 78 | 1006.7 |
| 20260506000507 | 27 | 142 | 0.0 | 3.2 | 0.00 | 0.00 | 0.00 | 77 | 1006.6 |
| 20260505235007 | 27 | 157 | 1.6 | 8.0 | 0.00 | 0.00 | 0.00 | 76 | 1006.7 |
| 20260505234508 | 27 | 191 | 0.0 | 4.8 | 0.00 | 0.00 | 0.00 | 76 | 1006.7 |
| 20260505234003 | 27 | 164 | 0.0 | 3.2 | 0.00 | 0.00 | 0.00 | 76 | 1006.6 |
| 20260505233508 | 27 | 174 | 0.0 | 3.2 | 0.00 | 0.00 | 0.00 | 75 | 1006.5 |
| 20260505233021 | 27 | 191 | 0.0 | 6.4 | 0.00 | 0.00 | 0.00 | 76 | 1006.6 |
| 20260505232503 | 27 | 180 | 0.0 | 8.0 | 0.00 | 0.00 | 0.00 | 76 | 1006.6 |
| 20260505232005 | 27 | 98 | 0.0 | 8.0 | 0.00 | 0.00 | 0.00 | 75 | 1006.5 |
| 20260505231520 | 27 | 122 | 0.0 | 6.4 | 0.00 | 0.00 | 0.00 | 75 | 1006.6 |
| 20260505231003 | 27 | 292 | 0.0 | 6.4 | 0.00 | 0.00 | 0.00 | 75 | 1006.6 |
| 20260505230014 | 28 | 235 | 0.0 | 4.8 | 0.00 | 0.00 | 0.00 | 75 | 1006.8 |
| 20260505225509 | 28 | 218 | 0.0 | 4.8 | 0.00 | 0.00 | 0.00 | 74 | 1006.7 |
| 20260505225004 | 28 | 149 | 1.6 | 3.2 | 0.00 | 0.00 | 0.00 | 74 | 1006.5 |
| 20260505224007 | 28 | 134 | 1.6 | 3.2 | 0.00 | 0.00 | 0.00 | 73 | 1006.5 |
| 20260505223505 | 28 | 112 | 0.0 | 8.0 | 0.00 | 0.00 | 0.00 | 75 | 1006.5 |
| 20260505223010 | 28 | 194 | 1.6 | 8.0 | 0.00 | 0.00 | 0.00 | 74 | 1006.6 |
| 20260505222506 | 28 | 227 | 0.0 | 3.2 | 0.00 | 0.00 | 0.00 | 75 | 1006.6 |
| 20260505221512 | 28 | 190 | 0.0 | 8.0 | 0.00 | 0.00 | 0.00 | 76 | 1006.6 |
| 20260505221003 | 28 | 150 | 1.6 | 8.0 | 0.00 | 0.00 | 0.00 | 75 | 1006.5 |
| 20260505220512 | 28 | 77 | 0.0 | 3.2 | 0.00 | 0.00 | 0.00 | 76 | 1006.5 |
| 20260505220013 | 28 | 215 | 0.0 | 16.1 | 0.00 | 0.00 | 0.00 | 75 | 1006.7 |
| 20260505215007 | 28 | 55 | 0.0 | 6.4 | 0.00 | 0.00 | 0.00 | 75 | 1006.9 |
| 20260505214524 | 28 | 202 | 1.6 | 12.9 | 0.00 | 0.00 | 0.00 | 75 | 1007.0 |
| 20260505214003 | 28 | 131 | 1.6 | 12.9 | 0.00 | 0.00 | 0.00 | 75 | 1007.1 |
| 20260505213018 | 28 | 168 | 0.0 | 4.8 | 0.00 | 0.00 | 0.00 | 75 | 1007.3 |
| 20260505212513 | 28 | 217 | 1.6 | 4.8 | 0.00 | 0.00 | 0.00 | 74 | 1007.3 |
| 20260505212010 | 28 | 156 | 1.6 | 4.8 | 0.00 | 0.00 | 0.00 | 75 | 1007.3 |
| 20260505210504 | 28 | 152 | 0.0 | 3.2 | 0.00 | 0.00 | 0.00 | 73 | 1007.4 |
| 20260505210015 | 29 | 214 | 0.0 | 4.8 | 0.00 | 0.00 | 0.00 | 73 | 1007.5 |
| 20260505205508 | 29 | 182 | 0.0 | 4.8 | 0.00 | 0.00 | 0.00 | 73 | 1007.5 |
| 20260505205010 | 29 | 118 | 0.0 | 4.8 | 0.00 | 0.00 | 0.00 | 72 | 1007.5 |
| 20260505204511 | 29 | 127 | 1.6 | 6.4 | 0.00 | 0.00 | 0.00 | 73 | 1007.5 |
| 20260505204009 | 29 | 360 | 0.0 | 6.4 | 0.00 | 0.00 | 0.00 | 74 | 1007.8 |
| 20260505203507 | 29 | 113 | 1.6 | 4.8 | 0.00 | 0.00 | 0.00 | 75 | 1007.8 |
| 20260505203007 | 28 | 199 | 0.0 | 4.8 | 0.00 | 0.00 | 0.00 | 73 | 1007.8 |
| 20260505201525 | 28 | 223 | 1.6 | 9.7 | 0.00 | 0.00 | 0.00 | 75 | 1008.0 |
| 20260505201003 | 28 | 148 | 1.6 | 17.7 | 0.00 | 0.00 | 0.00 | 74 | 1008.1 |
| 20260505200508 | 28 | 142 | 1.6 | 17.7 | 0.00 | 0.00 | 0.00 | 74 | 1008.2 |
| 20260505195504 | 28 | 236 | 1.6 | 14.5 | 0.00 | 0.00 | 0.00 | 76 | 1008.5 |
| 20260505195005 | 27 | 124 | 0.0 | 14.5 | 0.00 | 0.00 | 0.00 | 77 | 1008.6 |
| 20260505194532 | 27 | 213 | 0.0 | 6.4 | 0.00 | 0.00 | 0.00 | 78 | 1008.6 |
| 20260505194009 | 27 | 169 | 1.6 | 6.4 | 0.00 | 0.00 | 0.00 | 77 | 1008.7 |
| 20260505193502 | 27 | 187 | 0.0 | 3.2 | 0.00 | 0.00 | 0.00 | 77 | 1008.8 |
| 20260505193032 | 27 | 203 | 0.0 | 3.2 | 0.00 | 0.00 | 0.00 | 77 | 1008.6 |
| 20260505192512 | 28 | 312 | 0.0 | 8.0 | 0.00 | 0.00 | 0.00 | 77 | 1008.6 |
| 20260505192003 | 28 | 159 | 0.0 | 8.0 | 0.00 | 0.00 | 0.00 | 75 | 1008.7 |
| 20260505191518 | 27 | 223 | 0.0 | 3.2 | 0.00 | 0.00 | 0.00 | 76 | 1008.7 |
| 20260505191013 | 27 | 125 | 0.0 | 11.3 | 0.00 | 0.00 | 0.00 | 76 | 1008.7 |
| 20260505190508 | 27 | 246 | 3.2 | 11.3 | 0.00 | 0.00 | 0.00 | 76 | 1008.8 |
| 20260505190013 | 27 | 164 | 1.6 | 6.4 | 0.00 | 0.00 | 0.00 | 78 | 1008.8 |
| 20260505185509 | 27 | 161 | 1.6 | 6.4 | 0.00 | 0.00 | 0.00 | 78 | 1008.9 |
| 20260505185008 | 27 | 178 | 0.0 | 6.4 | 0.00 | 0.00 | 0.00 | 78 | 1008.9 |
| 20260505184527 | 27 | 201 | 1.6 | 6.4 | 0.00 | 0.00 | 0.00 | 77 | 1009.0 |
| 20260505184007 | 27 | 203 | 1.6 | 12.9 | 0.00 | 0.00 | 0.00 | 78 | 1009.0 |
| 20260505183506 | 27 | 292 | 1.6 | 12.9 | 0.00 | 0.00 | 0.00 | 79 | 1009.0 |
| 20260505183028 | 26 | 183 | 1.6 | 12.9 | 0.00 | 0.00 | 0.00 | 79 | 1009.0 |
| 20260505182009 | 26 | 208 | 0.0 | 6.4 | 0.00 | 0.00 | 0.00 | 80 | 1009.1 |
| 20260505181522 | 26 | 17 | 0.0 | 3.2 | 0.00 | 0.00 | 0.00 | 79 | 1009.2 |
| 20260505181012 | 26 | 134 | 0.0 | 3.2 | 0.00 | 0.00 | 0.00 | 80 | 1009.1 |
| 20260505180507 | 26 | 186 | 0.0 | 3.2 | 0.00 | 0.00 | 0.00 | 80 | 1009.1 |
| 20260505180032 | 26 | 306 | 0.0 | 6.4 | 0.00 | 0.00 | 0.00 | 80 | 1009.1 |
| 20260505175508 | 26 | 167 | 0.0 | 6.4 | 0.00 | 0.00 | 0.00 | 81 | 1009.2 |
| 20260505175005 | 26 | 220 | 1.6 | 3.2 | 0.00 | 0.00 | 0.00 | 81 | 1009.2 |
| 20260505174531 | 26 | 164 | 0.0 | 6.4 | 0.00 | 0.00 | 0.00 | 81 | 1009.3 |
| 20260505174010 | 26 | 164 | 0.0 | 6.4 | 0.00 | 0.00 | 0.00 | 81 | 1009.4 |
| 20260505173510 | 26 | 155 | 1.6 | 6.4 | 0.00 | 0.00 | 0.00 | 82 | 1009.5 |
| 20260505173016 | 26 | 175 | 0.0 | 6.4 | 0.00 | 0.00 | 0.00 | 83 | 1009.5 |
| 20260505172506 | 25 | 148 | 0.0 | 4.8 | 0.00 | 0.00 | 0.00 | 83 | 1009.5 |
| 20260505172008 | 25 | 192 | 0.0 | 8.0 | 0.00 | 0.00 | 0.00 | 84 | 1009.5 |
| 20260505171514 | 25 | 190 | 0.0 | 8.0 | 0.00 | 0.00 | 0.00 | 83 | 1009.6 |
| 20260505170508 | 25 | 157 | 0.0 | 3.2 | 0.00 | 0.00 | 0.00 | 82 | 1009.7 |
| 20260505170028 | 26 | 192 | 0.0 | 4.8 | 0.00 | 0.00 | 0.00 | 82 | 1009.6 |
| 20260505165504 | 26 | 121 | 0.0 | 4.8 | 0.00 | 0.00 | 0.00 | 82 | 1009.7 |
| 20260505165007 | 26 | 246 | 0.0 | 3.2 | 0.00 | 0.00 | 0.00 | 82 | 1009.7 |
| 20260505164524 | 26 | 181 | 0.0 | 4.8 | 0.00 | 0.00 | 0.00 | 82 | 1009.7 |
| 20260505164010 | 25 | 173 | 0.0 | 4.8 | 0.00 | 0.00 | 0.00 | 82 | 1009.8 |
| 20260505163506 | 25 | 37 | 0.0 | 6.4 | 0.00 | 0.00 | 0.00 | 82 | 1009.7 |
| 20260505163024 | 25 | 195 | 0.0 | 8.0 | 0.00 | 0.00 | 0.00 | 82 | 1009.7 |
| 20260505162509 | 25 | 215 | 1.6 | 8.0 | 0.00 | 0.00 | 0.00 | 83 | 1009.7 |
| 20260505162007 | 25 | 215 | 0.0 | 3.2 | 0.00 | 0.00 | 0.00 | 83 | 1009.6 |
| 20260505161522 | 25 | 247 | 0.0 | 4.8 | 0.00 | 0.00 | 0.00 | 83 | 1009.6 |
| 20260505161008 | 25 | 196 | 0.0 | 12.9 | 0.00 | 0.00 | 0.00 | 83 | 1009.6 |
| 20260505153031 | 25 | 126 | 1.6 | 3.2 | 0.00 | 0.00 | 0.00 | 83 | 1009.4 |
| 20260505152504 | 25 | 212 | 0.0 | 3.2 | 0.00 | 0.00 | 0.00 | 83 | 1009.4 |
| 20260505152010 | 25 | 238 | 0.0 | 8.0 | 0.00 | 0.00 | 0.00 | 83 | 1009.4 |
| 20260505151529 | 25 | 219 | 1.6 | 9.7 | 0.00 | 0.00 | 0.00 | 83 | 1009.3 |
| 20260505151006 | 24 | 196 | 0.0 | 9.7 | 0.00 | 0.00 | 0.00 | 83 | 1009.3 |
| 20260505150507 | 24 | 221 | 0.0 | 4.8 | 0.00 | 0.00 | 0.00 | 83 | 1009.3 |
| 20260505140511 | 23 | 173 | 0.0 | 8.0 | 0.00 | 0.00 | 0.00 | 85 | 1009.1 |
| 20260505125011 | -17 | 0.0 | 0.0 | 0.00 | 0.00 | 0.00 | 1008.8 | ||
| 20260505124526 | -17 | 0.0 | 0.0 | 0.00 | 0.00 | 0.00 | 1008.4 | ||
| 20260505124011 | -17 | 0.0 | 0.0 | 0.00 | 0.00 | 0.00 | 1008.4 | ||
| 20260505123508 | -17 | 0.0 | 0.0 | 0.00 | 0.00 | 0.00 | 1008.7 | ||
| 20260505123041 | -17 | 0.0 | 0.0 | 0.00 | 0.00 | 0.00 | 1008.9 | ||
| 20260505122509 | -17 | 0.0 | 0.0 | 0.00 | 0.00 | 0.00 | 1008.8 | ||
| 20260505122013 | -17 | 0.0 | 0.0 | 0.00 | 0.00 | 0.00 | 1008.9 | ||
| 20260505121528 | -17 | 0.0 | 0.0 | 0.00 | 0.00 | 0.00 | 1008.9 | ||
| 20260505121010 | -17 | 0.0 | 0.0 | 0.00 | 0.00 | 0.00 | 1008.6 | ||
| 20260505120029 | -17 | 0.0 | 0.0 | 0.00 | 0.00 | 0.00 | 1008.5 | ||
| 20260505115510 | -17 | 0.0 | 0.0 | 0.00 | 0.00 | 0.00 | 1008.5 | ||
| 20260505115007 | -17 | 0.0 | 0.0 | 0.00 | 0.00 | 0.00 | 1008.3 | ||
| 20260505114526 | -17 | 0.0 | 0.0 | 0.00 | 0.00 | 0.00 | 1008.1 | ||
| 20260505114008 | -17 | 0.0 | 0.0 | 0.00 | 0.00 | 0.00 | 1008.3 | ||
| 20260505113510 | -17 | 0.0 | 0.0 | 0.00 | 0.00 | 0.00 | 1008.6 | ||
| 20260505113034 | -17 | 0.0 | 0.0 | 0.00 | 0.00 | 0.00 | 1008.7 | ||
| 20260505112509 | -17 | 0.0 | 0.0 | 0.00 | 0.00 | 0.00 | 1008.6 | ||
| 20260505112015 | -17 | 0.0 | 0.0 | 0.00 | 0.00 | 0.00 | 1008.6 | ||
| 20260505111542 | -17 | 0.0 | 0.0 | 0.00 | 0.00 | 0.00 | 1008.4 | ||
| 20260505111013 | -17 | 0.0 | 0.0 | 0.00 | 0.00 | 0.00 | 1008.5 | ||
| 20260505110513 | -17 | 0.0 | 0.0 | 0.00 | 0.00 | 0.00 | 1008.3 |